Total_Precipitation_Accumulation
0.57 0.50 0.45 0.37 0.33 0.32 0.33 0.41 0.72 1.10 1.48 1.92 2.08 2.16 2.38 2.54 2.40 2.07 1.74 1.55 1.46 1.35 1.27 1.16 1.05 0.97 0.84 0.72 0.64 0.59 0.60 0.63 0.61 0.55 0.50 0.45 0.43 0.41 0.40 0.37 0.33 0.30 0.28 0.27
0.52 0.41 0.46 0.46 0.46 0.48 0.46 0.52 0.79 1.15 1.71 2.02 2.21 2.33 2.38 2.32 2.25 2.13 1.86 1.66 1.56 1.47 1.36 1.26 1.12 1.05 0.98 0.88 0.80 0.71 0.68 0.70 0.67 0.62 0.53 0.46 0.40 0.37 0.36 0.32 0.29 0.26 0.24 0.25
0.74 0.44 0.63 0.95 0.78 0.66 0.69 0.73 0.91 1.23 1.55 1.68 1.85 2.03 2.22 2.27 2.16 2.14 1.96 1.77 1.66 1.63 1.56 1.46 1.37 1.25 1.12 0.97 0.86 0.75 0.67 0.65 0.63 0.57 0.51 0.45 0.37 0.35 0.37 0.37 0.33 0.31 0.30 0.30
0.70 0.82 1.26 1.10 0.70 0.63 0.76 0.81 0.82 0.98 1.09 1.30 1.47 1.65 1.90 2.08 2.11 2.13 2.02 1.92 1.81 1.72 1.65 1.55 1.40 1.24 1.02 0.83 0.74 0.66 0.59 0.55 0.49 0.45 0.45 0.43 0.39 0.38 0.40 0.40 0.38 0.37 0.37 0.38
0.82 1.11 1.25 1.08 0.67 0.60 0.88 1.07 0.81 0.85 0.88 0.90 1.01 1.23 1.67 1.76 1.78 1.89 1.93 1.87 1.78 1.66 1.58 1.43 1.21 0.99 0.87 0.73 0.68 0.63 0.57 0.53 0.45 0.39 0.42 0.45 0.43 0.43 0.44 0.43 0.42 0.41 0.43 0.47
0.90 1.26 1.49 1.31 0.59 0.39 0.70 1.39 1.01 0.90 0.94 0.92 1.08 1.32 1.32 1.28 1.28 1.35 1.50 1.58 1.56 1.43 1.29 1.19 1.00 0.85 0.83 0.75 0.68 0.64 0.55 0.49 0.43 0.40 0.42 0.46 0.50 0.49 0.44 0.43 0.41 0.36 0.42 0.50
1.01 1.28 1.33 0.74 0.42 0.55 1.25 1.55 1.12 0.91 0.96 1.12 1.31 1.23 0.92 0.80 0.92 1.04 1.16 1.26 1.31 1.25 1.16 1.01 0.83 0.82 0.89 0.87 0.73 0.55 0.43 0.43 0.44 0.44 0.43 0.42 0.46 0.47 0.44 0.39 0.41 0.40 0.42 0.44
1.06 1.34 1.34 0.56 0.48 0.85 1.04 0.84 0.74 0.74 0.77 0.79 0.80 0.71 0.64 0.62 0.73 0.84 0.98 1.05 1.10 1.11 1.04 0.93 0.85 0.84 0.85 0.81 0.63 0.51 0.48 0.48 0.49 0.45 0.35 0.35 0.43 0.46 0.41 0.40 0.43 0.43 0.44 0.44
0.99 1.19 0.90 0.47 0.46 0.50 0.53 0.61 0.61 0.66 0.67 0.56 0.56 0.58 0.56 0.58 0.67 0.78 0.83 0.86 0.90 0.92 0.88 0.86 0.81 0.82 0.80 0.69 0.52 0.48 0.54 0.52 0.47 0.39 0.34 0.34 0.40 0.41 0.38 0.37 0.34 0.31 0.31 0.35
0.66 0.67 0.52 0.44 0.40 0.43 0.50 0.51 0.52 0.57 0.57 0.53 0.47 0.47 0.50 0.56 0.66 0.71 0.70 0.70 0.74 0.81 0.80 0.78 0.73 0.72 0.71 0.61 0.54 0.56 0.60 0.52 0.43 0.37 0.31 0.28 0.28 0.26 0.27 0.28 0.26 0.23 0.23 0.25
0.67 0.68 0.59 0.54 0.45 0.46 0.51 0.51 0.49 0.52 0.56 0.49 0.40 0.39 0.43 0.53 0.53 0.57 0.61 0.63 0.68 0.78 0.77 0.68 0.61 0.57 0.52 0.53 0.54 0.60 0.57 0.46 0.40 0.32 0.26 0.24 0.20 0.15 0.14 0.14 0.11 0.12 0.12 0.13
0.66 0.64 0.66 0.62 0.45 0.42 0.51 0.59 0.60 0.57 0.50 0.41 0.36 0.35 0.36 0.44 0.45 0.45 0.50 0.58 0.66 0.66 0.61 0.54 0.49 0.47 0.40 0.40 0.43 0.46 0.42 0.35 0.29 0.23 0.21 0.17 0.17 0.14 0.08 0.06 0.05 0.05 0.06 0.06
0.42 0.42 0.48 0.53 0.50 0.50 0.54 0.54 0.53 0.45 0.38 0.33 0.31 0.31 0.34 0.39 0.41 0.43 0.45 0.47 0.50 0.49 0.46 0.43 0.37 0.35 0.32 0.29 0.29 0.31 0.30 0.26 0.20 0.17 0.16 0.13 0.16 0.21 0.22 0.13 0.05 0.03 0.04 0.05
0.48 0.50 0.65 0.66 0.57 0.45 0.39 0.35 0.36 0.33 0.33 0.32 0.32 0.31 0.31 0.30 0.30 0.34 0.40 0.38 0.35 0.33 0.35 0.33 0.30 0.29 0.27 0.24 0.25 0.25 0.21 0.17 0.16 0.16 0.13 0.11 0.12 0.14 0.19 0.25 0.22 0.15 0.07 0.04
0.55 0.50 0.59 0.56 0.43 0.35 0.30 0.28 0.30 0.32 0.33 0.35 0.34 0.29 0.25 0.25 0.25 0.26 0.27 0.26 0.26 0.27 0.26 0.25 0.27 0.28 0.24 0.21 0.21 0.22 0.19 0.17 0.16 0.16 0.12 0.09 0.08 0.08 0.09 0.15 0.20 0.21 0.17 0.10
0.49 0.41 0.40 0.35 0.30 0.29 0.27 0.27 0.28 0.27 0.27 0.27 0.25 0.24 0.20 0.18 0.19 0.22 0.23 0.21 0.22 0.23 0.23 0.21 0.23 0.21 0.19 0.21 0.22 0.22 0.18 0.14 0.13 0.13 0.11 0.08 0.06 0.06 0.08 0.12 0.15 0.17 0.16 0.12
0.44 0.39 0.34 0.28 0.25 0.23 0.21 0.24 0.24 0.21 0.19 0.19 0.19 0.19 0.16 0.16 0.18 0.20 0.21 0.20 0.20 0.23 0.23 0.22 0.20 0.15 0.13 0.16 0.19 0.17 0.14 0.11 0.09 0.08 0.07 0.06 0.05 0.05 0.06 0.10 0.12 0.14 0.12 0.12
0.36 0.30 0.24 0.21 0.18 0.17 0.15 0.16 0.17 0.16 0.16 0.13 0.13 0.15 0.15 0.16 0.19 0.18 0.16 0.15 0.16 0.19 0.19 0.17 0.12 0.09 0.08 0.10 0.12 0.11 0.11 0.09 0.07 0.06 0.05 0.04 0.05 0.05 0.05 0.07 0.09 0.11 0.11 0.11
0.29 0.21 0.14 0.12 0.12 0.12 0.12 0.12 0.12 0.11 0.12 0.11 0.10 0.11 0.12 0.13 0.16 0.13 0.12 0.12 0.13 0.16 0.15 0.12 0.10 0.10 0.10 0.09 0.09 0.09 0.08 0.07 0.06 0.05 0.05 0.05 0.05 0.06 0.07 0.08 0.10 0.10 0.09 0.10
0.22 0.14 0.10 0.10 0.11 0.10 0.09 0.08 0.09 0.09 0.09 0.08 0.07 0.07 0.09 0.11 0.11 0.09 0.10 0.12 0.11 0.11 0.10 0.09 0.09 0.10 0.10 0.09 0.07 0.06 0.05 0.05 0.04 0.04 0.05 0.06 0.05 0.05 0.06 0.07 0.08 0.07 0.07 0.09
0.13 0.08 0.06 0.08 0.10 0.09 0.09 0.09 0.09 0.09 0.08 0.07 0.07 0.06 0.06 0.08 0.07 0.08 0.11 0.13 0.11 0.08 0.07 0.06 0.07 0.08 0.08 0.09 0.07 0.04 0.04 0.04 0.03 0.03 0.04 0.04 0.04 0.04 0.04 0.04 0.06 0.06 0.07 0.08
0.09 0.06 0.05 0.06 0.08 0.08 0.08 0.08 0.08 0.08 0.07 0.07 0.07 0.06 0.05 0.07 0.07 0.07 0.11 0.15 0.12 0.07 0.05 0.03 0.05 0.07 0.08 0.08 0.05 0.04 0.04 0.04 0.04 0.04 0.04 0.04 0.04 0.04 0.03 0.04 0.05 0.06 0.06 0.06
0.10 0.07 0.05 0.06 0.06 0.06 0.06 0.08 0.09 0.07 0.07 0.06 0.06 0.06 0.06 0.07 0.06 0.06 0.09 0.11 0.09 0.06 0.05 0.03 0.04 0.06 0.06 0.06 0.05 0.03 0.04 0.04 0.04 0.05 0.05 0.05 0.04 0.04 0.04 0.04 0.05 0.05 0.05 0.05
0.11 0.08 0.06 0.05 0.05 0.06 0.08 0.08 0.07 0.07 0.06 0.04 0.04 0.05 0.05 0.06 0.06 0.04 0.04 0.05 0.05 0.06 0.06 0.04 0.04 0.03 0.04 0.04 0.04 0.04 0.05 0.05 0.04 0.05 0.08 0.06 0.05 0.03 0.03 0.04 0.05 0.05 0.05 0.04
0.12 0.10 0.08 0.08 0.08 0.09 0.09 0.07 0.07 0.06 0.06 0.06 0.05 0.05 0.05 0.05 0.04 0.02 0.02 0.02 0.03 0.03 0.03 0.04 0.03 0.02 0.03 0.03 0.02 0.03 0.04 0.06 0.05 0.06 0.08 0.06 0.04 0.03 0.04 0.05 0.05 0.06 0.05 0.04
0.21 0.17 0.15 0.13 0.11 0.10 0.07 0.06 0.06 0.06 0.07 0.07 0.07 0.07 0.07 0.06 0.06 0.04 0.03 0.02 0.02 0.02 0.02 0.02 0.03 0.03 0.02 0.02 0.02 0.02 0.03 0.03 0.03 0.04 0.05 0.05 0.03 0.03 0.05 0.06 0.07 0.06 0.04 0.04
0.32 0.31 0.29 0.20 0.12 0.10 0.08 0.06 0.05 0.07 0.08 0.07 0.06 0.05 0.05 0.05 0.06 0.05 0.04 0.03 0.03 0.02 0.02 0.03 0.03 0.03 0.02 0.02 0.02 0.03 0.04 0.04 0.04 0.04 0.04 0.03 0.02 0.03 0.05 0.07 0.08 0.06 0.04 0.04